Bridgeport, WV

3:45 PM EST on February 10, 2016 (GMT -0500)
Benedum

Weather History for KCKB - May, 2014

Change the Weather History Date:

Sunday, May 11, 2014

  Actual Average Record
Temperature  
Mean Temperature 64 °F -  
Max Temperature 80 °F 71 °F 95 °F (1936)
Min Temperature 51 °F 44 °F 27 °F (1947)
Growing Degree Days 14 (Base 50)    
Moisture  
Dew Point 53 °F    
Average Humidity 82    
Maximum Humidity 100    
Minimum Humidity 37    
Precipitation  
Precipitation 0.00 in - - ()
Sea Level Pressure  
Sea Level Pressure 30.09 in    
Wind  
Wind Speed 2 mph (SSW)    
Max Wind Speed 7 mph    
Max Gust Speed -    
Visibility 5 miles    
Events Fog    
Averages and records for this station are not official NWS values.
T = Trace of Precipitation, MM = Missing Value Source: NWS Daily Summary

Daily Weather History Graph

Daily Weather History Graph

Search for Another Location

Airport or City:

Trip Planner

Search our weather history database for the weather conditions in past years. The results will help you decide how hot, cold, wet, or windy it might be!

Date:

Astronomy

May. 11, 2014 Rise Set
Actual Time 6:11 AM EDT 8:23 PM EDT
Civil Twilight 5:41 AM EDT 8:53 PM EDT
Nautical Twilight 5:04 AM EDT 9:30 PM EDT
Astronomical Twilight 4:24 AM EDT 10:10 PM EDT
Moon 5:19 PM EDT (5/11) 4:14 AM EDT (5/11)
Length of Visible Light 15h 12m
Length of Day
14h 12m
Waxing Gibbous, 89% of the Moon is Illuminated
May 11
Waxing Gibbous
May 14
Full
May 21
Last Quarter
May 28
New
Jun 5
First Quarter

Hourly Weather History & Observations

Time (EDT) Temp. Dew Point Humidity Pressure Visibility Wind Dir Wind Speed Gust Speed Precip Events Conditions
12:25 AM 55.0 °F 54.0 °F 96% 30.07 in 1.5 mi SW 3.5 mph - N/A   Clear
12:36 AM 55.0 °F 54.0 °F 96% 30.07 in 0.5 mi SW 3.5 mph - N/A Fog Fog
12:43 AM 55.9 °F 54.0 °F 93% 30.07 in 0.5 mi Calm Calm - N/A Fog Fog
12:53 AM 55.9 °F 55.0 °F 97% 30.04 in 0.5 mi Calm Calm - N/A Fog Fog
12:59 AM 55.0 °F 54.0 °F 96% 30.06 in 1.0 mi Calm Calm - N/A   Scattered Clouds
1:12 AM 55.9 °F 54.0 °F 93% 30.07 in 0.5 mi Calm Calm - N/A Fog Fog
1:18 AM 55.9 °F 54.0 °F 93% 30.07 in 1.0 mi South 3.5 mph - N/A   Mostly Cloudy
1:34 AM 55.0 °F 53.1 °F 93% 30.07 in 0.5 mi Calm Calm - N/A Fog Fog
2:04 AM 53.1 °F 52.0 °F 96% 30.07 in 0.2 mi Calm Calm - N/A Fog Fog
2:42 AM 52.0 °F 51.1 °F 97% 30.07 in 0.5 mi Calm Calm - N/A Fog Fog
2:53 AM 53.1 °F 52.0 °F 96% 30.04 in 0.5 mi Calm Calm - N/A Fog Fog
3:07 AM 54.0 °F 53.1 °F 97% 30.07 in 1.0 mi Calm Calm - N/A   Overcast
3:14 AM 54.0 °F 52.0 °F 93% 30.07 in 0.5 mi South 3.5 mph - N/A Fog Fog
3:35 AM 53.1 °F 52.0 °F 96% 30.07 in 1.8 mi Calm Calm - N/A   Mostly Cloudy
3:40 AM 53.1 °F 52.0 °F 96% 30.07 in 3.0 mi Calm Calm - N/A   Overcast
3:51 AM 53.6 °F 53.6 °F 100% 30.08 in 1.8 mi Calm Calm - N/A   Mostly Cloudy
3:52 AM 54.0 °F 52.0 °F 93% 30.05 in 1.8 mi Calm Calm - N/A   Overcast
4:07 AM 53.1 °F 52.0 °F 96% 30.08 in 0.5 mi Calm Calm - N/A Fog Fog
4:14 AM 53.1 °F 52.0 °F 96% 30.08 in 0.5 mi Calm Calm - N/A Fog Fog
4:25 AM 54.0 °F 53.1 °F 97% 30.09 in 2.0 mi Calm Calm - N/A   Overcast
4:32 AM 55.0 °F 53.1 °F 93% 30.08 in 8.0 mi Calm Calm - N/A   Overcast
4:47 AM 53.6 °F 51.8 °F 94% 30.09 in 0.8 mi Calm Calm - N/A   Mostly Cloudy
4:53 AM 53.1 °F 52.0 °F 96% 30.07 in 0.2 mi Calm Calm - N/A Fog Fog
5:02 AM 52.0 °F 52.0 °F 100% 30.09 in 0.2 mi Calm Calm - N/A Fog Fog
5:14 AM 54.0 °F 52.0 °F 93% 30.10 in 0.2 mi Calm Calm - N/A Fog Fog
5:53 AM 51.1 °F 50.0 °F 96% 30.08 in 0.5 mi Calm Calm - N/A Fog Fog
6:10 AM 53.1 °F 52.0 °F 96% 30.11 in 1.8 mi Calm Calm - N/A   Overcast
6:15 AM 53.1 °F 52.0 °F 96% 30.11 in 3.0 mi Calm Calm - N/A   Overcast
6:53 AM 55.0 °F 54.0 °F 96% 30.11 in 9.0 mi Calm Calm - N/A   Overcast
7:53 AM 57.0 °F 55.0 °F 93% 30.14 in 10.0 mi SSW 3.5 mph - N/A   Overcast
8:53 AM 60.1 °F 57.0 °F 90% 30.14 in 10.0 mi South 3.5 mph - N/A   Overcast
9:32 AM 62.1 °F 57.0 °F 84% 30.18 in 10.0 mi SW 4.6 mph - N/A   Overcast
9:50 AM 62.6 °F 55.4 °F 77% 30.18 in 10.0 mi Variable 3.5 mph - N/A   Mostly Cloudy
9:53 AM 63.0 °F 55.9 °F 78% 30.16 in 10.0 mi SSW 4.6 mph - N/A   Mostly Cloudy
10:53 AM 64.9 °F 55.0 °F 70% 30.16 in 10.0 mi Calm Calm - N/A   Partly Cloudy
11:53 AM 70.0 °F 55.9 °F 61% 30.15 in 10.0 mi Variable 3.5 mph - N/A   Clear
12:53 PM 73.0 °F 55.0 °F 53% 30.14 in 10.0 mi SW 6.9 mph - N/A   Clear
2:53 PM 78.1 °F 50.0 °F 37% 30.11 in 10.0 mi Variable 4.6 mph - N/A   Clear
3:53 PM 77.0 °F 51.1 °F 40% 30.09 in 10.0 mi North 4.6 mph - N/A   Clear
4:53 PM 78.1 °F 52.0 °F 40% 30.06 in 10.0 mi SE 4.6 mph - N/A   Clear
5:53 PM 78.1 °F 51.1 °F 39% 30.06 in 10.0 mi South 5.8 mph - N/A   Clear
6:53 PM 77.0 °F 50.0 °F 39% 30.05 in 10.0 mi SW 6.9 mph - N/A   Clear
7:53 PM 75.0 °F 48.9 °F 40% 30.05 in 10.0 mi South 4.6 mph - N/A   Clear
8:53 PM 70.0 °F 51.1 °F 51% 30.06 in 10.0 mi Calm Calm - N/A   Clear
9:53 PM 66.0 °F 51.1 °F 59% 30.08 in 10.0 mi Calm Calm - N/A   Clear
10:53 PM 62.1 °F 53.1 °F 72% 30.09 in 10.0 mi Calm Calm - N/A   Clear
11:53 PM 62.1 °F 53.1 °F 72% 30.09 in 10.0 mi Calm Calm - N/A   Mostly Cloudy